GFSMW_sfc_30mbdewp_000.txt.gz
Dewpoint
44 45 47 48 51 53 53 53 51 49 46 46 44 43 42 45 40 39 38 36 36 36 37 38 38 37 36 37 38 37 36 35 41 37 34 35 36 39 40 41 40 39 40
41 41 42 44 47 50 47 45 45 45 44 43 45 46 45 43 40 36 35 36 36 36 37 38 38 37 36 38 38 38 35 38 40 39 38 34 34 36 34 36 38 36 38
41 38 38 38 41 41 40 38 39 39 41 44 43 40 40 40 36 37 33 35 35 36 36 37 37 37 37 37 38 38 36 37 37 38 37 33 32 34 34 32 33 33 35
37 35 34 33 33 33 34 35 36 36 37 37 37 36 37 35 38 34 32 34 34 34 35 36 37 36 37 38 38 36 35 36 31 35 33 34 33 31 30 31 31 33 33
36 36 36 36 37 36 35 36 36 36 36 37 38 37 34 36 35 33 33 33 34 35 35 36 36 36 36 36 35 32 31 32 30 32 33 34 33 33 31 27 27 28 31
38 38 39 38 37 36 35 36 37 36 36 35 36 34 34 33 31 33 33 34 34 35 36 36 36 36 35 34 33 31 31 30 30 31 31 31 29 29 30 27 27 26 29
39 39 38 37 37 36 35 35 33 32 33 33 33 32 30 30 32 33 34 35 34 35 37 36 36 35 34 33 31 28 28 27 25 25 25 29 28 32 31 29 26 24 25
39 38 37 36 36 34 31 31 31 31 32 33 33 34 34 34 35 35 35 35 35 34 37 35 32 32 33 31 32 29 27 28 26 25 26 28 29 29 27 27 24 18 18
37 37 36 35 35 36 34 31 31 28 27 27 30 28 28 26 27 30 32 34 36 36 36 32 34 35 35 31 30 28 26 27 26 27 28 28 29 26 23 26 23 22 17
36 35 33 33 34 35 36 30 23 19 20 21 22 22 23 26 28 31 31 33 35 35 35 34 34 32 29 29 28 27 26 27 28 29 27 22 23 22 22 21 20 20 19
34 32 31 30 29 28 25 21 18 17 19 20 23 24 26 27 27 27 31 32 33 34 33 31 32 30 28 30 25 24 24 27 27 22 20 19 20 19 20 18 18 18 19
32 31 29 23 19 19 19 18 18 18 19 21 24 25 27 27 27 27 29 31 30 30 30 31 32 32 28 25 23 23 25 23 20 18 19 18 18 17 17 17 17 18 19
32 31 27 19 19 19 19 19 19 17 18 19 21 25 27 28 28 28 27 28 28 29 30 32 30 27 23 22 23 24 23 19 18 19 19 18 18 17 17 17 19 19 23
31 29 26 18 18 19 19 19 18 19 20 20 23 25 28 29 30 30 30 30 31 32 31 28 28 22 20 22 23 21 19 19 20 20 19 19 19 18 18 20 19 21 21
29 28 23 17 18 19 19 18 18 19 21 21 22 25 29 30 30 31 32 33 33 33 31 31 22 19 21 22 20 19 20 20 20 19 20 20 21 23 23 19 19 19 21
29 27 22 15 17 18 17 16 16 18 20 21 22 27 29 30 30 31 32 33 34 30 23 17 19 21 21 24 26 27 27 25 22 23 24 23 21 20 18 18 18 18 19
27 25 20 14 13 15 16 14 15 18 20 22 23 27 29 29 29 31 32 32 32 30 27 21 22 22 27 28 28 27 23 22 21 18 17 17 16 18 19 20 19 20 23
26 24 21 13 8 13 15 16 16 17 19 21 23 27 29 28 30 30 31 31 31 30 23 22 23 24 23 24 25 23 20 19 17 16 17 17 17 18 17 20 23 21 21
26 24 21 10 6 11 14 15 16 18 20 21 23 25 28 28 29 30 30 29 30 27 22 22 21 15 18 21 19 19 19 18 17 17 17 17 17 17 19 20 20 19 19
23 17 11 10 11 13 16 18 19 21 21 22 24 26 28 28 28 29 27 27 21 20 21 19 17 16 15 17 16 17 17 15 17 19 17 17 17 17 18 22 20 19 20
13 14 14 14 16 19 21 20 21 21 22 23 24 26 27 27 27 25 24 19 21 21 19 18 16 14 15 15 16 16 16 15 18 17 17 18 18 15 14 19 21 21 21
16 16 16 17 20 22 22 22 22 23 25 26 26 26 26 26 24 23 19 20 21 17 17 15 15 15 13 15 17 16 16 15 17 15 17 18 15 13 14 15 18 19 19
16 17 18 19 19 20 23 23 25 26 26 27 27 26 26 25 24 22 19 19 18 16 15 15 13 14 15 14 16 18 16 15 17 15 14 14 13 14 14 14 16 18 17
17 18 18 16 18 22 24 26 26 27 28 28 27 27 26 24 24 21 19 19 18 17 17 17 15 14 14 12 13 16 14 13 15 12 12 13 14 12 14 14 13 15 16
19 18 18 20 22 24 26 28 27 28 28 29 29 28 26 25 24 19 19 19 19 18 17 17 16 14 13 12 15 18 15 13 13 11 10 12 11 10 12 12 12 12 12
20 19 21 23 24 26 27 27 28 28 28 27 26 27 28 30 29 20 21 22 22 21 22 22 17 14 16 16 18 18 16 15 14 9 10 10 10 9 11 12 11 10 9

GFSMW_sfc_30mbdewp_003.txt.gz
Dewpoint
48 52 55 58 58 57 55 54 52 50 49 46 46 46 45 44 37 36 37 37 38 39 40 38 38 38 36 37 35 31 30 30 36 30 26 25 37 39 37 36 35 36 34
47 49 54 57 57 56 56 53 50 45 44 46 47 47 46 41 36 35 37 37 38 37 36 38 37 39 37 39 38 33 29 33 38 29 25 20 21 28 35 31 32 33 34
46 48 52 54 53 51 50 50 46 44 44 45 43 41 41 40 37 35 34 35 36 35 37 39 39 40 39 38 38 36 33 30 34 37 27 22 21 28 26 28 30 30 27
41 42 43 45 45 40 40 40 40 39 38 40 39 40 37 35 38 34 34 36 38 37 37 38 40 40 40 39 37 35 34 31 27 26 30 30 29 21 18 20 21 25 22
36 34 34 34 35 37 38 39 38 37 37 39 37 35 35 36 36 36 38 38 38 38 38 38 40 40 39 38 37 34 29 25 22 21 21 22 20 21 19 12 14 16 17
37 37 38 38 37 37 39 39 36 35 35 35 35 35 34 33 34 35 36 36 37 36 38 38 39 39 38 36 33 31 28 22 21 19 18 16 15 14 19 17 15 13 13
38 39 38 38 38 38 38 35 33 33 34 34 34 34 34 34 32 31 31 33 31 31 35 39 39 38 35 34 32 29 27 23 17 18 16 20 19 22 20 18 16 17 16
40 40 39 37 35 35 34 33 33 30 30 29 26 23 21 18 18 22 24 25 28 30 37 39 37 35 34 33 33 30 26 27 24 25 27 25 25 28 27 23 21 18 15
39 39 38 36 34 33 34 32 23 19 19 21 21 23 24 24 24 26 27 27 33 36 39 36 36 35 34 33 31 29 27 27 28 28 29 28 27 26 23 22 22 20 18
38 38 36 38 38 36 30 24 18 17 20 22 24 24 26 27 27 27 27 29 33 36 38 35 34 35 34 31 30 27 27 27 28 27 29 25 22 22 22 20 19 17 16
37 35 35 36 38 30 22 20 19 20 20 22 25 27 27 28 28 28 29 30 33 35 35 34 33 33 31 29 29 28 26 26 27 27 24 21 20 18 16 17 15 15 14
34 33 31 28 25 21 19 20 20 19 20 22 24 26 27 29 28 29 29 31 31 32 32 33 32 31 30 28 26 25 24 25 24 22 20 19 18 17 18 18 16 16 16
32 29 22 19 19 20 21 21 20 18 19 19 21 24 27 29 29 29 31 31 32 31 33 33 32 28 27 23 24 25 25 23 21 20 20 19 19 18 19 18 17 18 18
31 28 20 17 19 20 21 21 21 21 20 19 20 24 28 29 30 31 31 32 34 34 33 33 31 29 22 22 24 23 21 20 20 21 21 21 21 20 20 22 23 22 19
30 28 22 16 18 20 21 20 20 21 22 21 21 24 29 30 30 31 31 32 34 35 33 30 21 22 22 21 22 21 22 23 23 22 21 20 22 21 20 18 18 17 16
30 28 23 16 17 20 21 19 19 20 21 22 23 25 29 30 30 30 31 32 33 34 28 27 24 23 23 27 29 26 21 18 16 15 14 14 14 14 17 17 17 18 16
31 27 24 18 14 18 19 17 17 19 20 21 22 25 28 29 29 30 29 31 32 33 32 25 24 25 25 26 26 23 16 14 14 13 12 13 12 15 14 14 15 19 19
31 28 24 20 14 15 16 17 16 17 18 19 21 24 27 28 29 29 28 31 31 29 29 25 23 23 21 22 20 20 17 15 14 13 14 13 14 14 16 17 18 16 15
33 28 24 20 12 11 15 15 15 17 19 21 22 23 26 27 28 28 29 29 27 27 27 24 22 15 16 18 18 17 18 17 15 15 15 15 14 15 17 15 17 14 13
31 25 22 11 7 10 14 16 19 21 20 21 23 24 26 28 28 28 28 27 25 19 23 21 17 16 15 16 17 17 18 17 16 15 14 15 16 17 14 14 16 15 19
19 16 11 10 13 17 21 21 21 20 21 24 26 26 27 27 28 28 26 23 20 22 23 20 18 15 15 16 16 17 18 17 15 13 11 14 16 14 14 14 15 18 18
16 15 16 17 20 22 22 20 20 23 25 26 27 27 28 28 27 26 24 20 21 21 22 21 20 18 17 14 17 17 17 16 16 14 13 15 14 13 14 13 15 15 17
16 17 18 20 20 20 22 20 22 27 27 28 27 28 29 28 26 25 22 20 21 20 19 19 20 18 19 17 16 18 19 17 15 16 14 13 14 12 10 12 13 14 14
17 19 18 16 17 22 23 25 28 28 28 28 28 29 28 27 25 24 21 20 21 20 20 21 20 19 18 18 16 18 19 17 16 15 13 14 14 13 12 11 11 12 11
31 20 17 18 20 24 25 28 28 28 28 28 26 26 27 28 27 23 21 21 20 21 21 21 21 22 21 20 18 19 19 18 17 14 14 12 12 11 9 10 10 10 7
22 19 20 22 23 26 27 27 27 29 29 27 26 26 27 27 29 30 25 22 23 21 22 22 22 24 21 18 17 19 19 17 15 14 13 13 12 11 10 9 9 9 7

GFSMW_sfc_30mbdewp_006.txt.gz
Dewpoint
49 52 54 53 54 56 56 55 54 54 53 50 48 45 44 42 39 38 40 39 39 38 38 36 36 38 36 38 38 35 33 32 34 30 25 23 21 27 31 33 30 31 34
50 53 55 55 55 54 54 54 53 53 49 47 45 46 45 41 38 38 39 37 37 35 35 38 37 37 36 36 38 36 32 28 32 33 27 19 18 17 27 28 27 28 30
50 53 54 55 55 55 55 53 51 46 44 45 43 42 42 40 38 36 35 38 38 37 36 37 37 37 36 35 36 35 34 30 29 30 28 23 18 20 20 22 20 25 22
51 52 54 55 55 55 53 48 43 43 41 40 40 40 37 36 37 35 36 38 39 39 37 36 37 37 35 35 36 33 33 30 24 24 23 24 24 21 18 18 20 17 17
48 48 48 48 45 44 43 42 40 38 39 39 39 37 36 35 35 35 35 35 34 35 34 34 35 35 34 35 37 35 30 28 27 24 23 22 19 18 15 14 15 15 14
41 39 40 38 37 40 41 40 38 37 37 37 38 38 36 31 27 23 20 17 15 16 19 23 33 37 37 38 35 31 31 28 25 22 20 18 17 16 15 14 13 13 13
35 34 35 35 37 40 40 38 36 36 37 37 33 28 23 19 16 16 14 16 15 17 19 25 29 35 38 35 32 32 32 28 24 21 19 18 18 17 18 16 15 14 14
36 36 36 37 38 39 37 37 36 35 31 26 20 20 19 19 18 21 23 21 21 24 29 34 37 38 35 33 35 34 30 26 23 21 21 21 19 17 18 17 16 15 15
37 38 39 38 38 37 38 37 31 25 22 22 22 23 24 26 26 26 24 23 24 26 31 37 37 37 34 36 32 28 26 24 21 21 20 19 18 17 17 16 16 17 18
37 39 39 38 37 38 36 30 25 23 23 23 24 24 25 26 26 25 24 24 26 28 31 34 36 34 34 31 28 25 22 21 19 18 19 18 17 17 17 16 15 15 14
38 39 38 38 38 36 31 27 24 24 22 22 25 27 26 26 26 25 24 25 27 27 29 32 34 33 29 28 29 23 20 19 19 19 19 19 18 17 17 16 16 15 14
39 39 38 39 38 31 27 25 24 23 22 22 24 25 26 26 26 25 25 27 28 28 29 30 31 30 28 28 23 20 20 19 19 19 19 18 16 18 17 16 16 16 15
38 37 36 36 32 27 24 25 25 22 19 18 20 22 24 26 26 25 26 27 28 30 31 30 30 28 26 23 20 21 21 21 21 20 20 19 19 18 17 17 16 17 19
36 35 32 30 27 24 25 26 25 21 19 18 19 21 25 26 27 27 26 27 29 30 30 30 30 29 24 21 22 21 22 21 21 22 21 21 19 18 18 16 16 16 19
34 33 30 27 25 24 26 26 23 22 21 19 19 21 25 27 27 27 26 27 30 30 30 28 25 24 24 21 23 24 24 22 19 18 16 14 16 16 17 17 16 16 15
33 32 30 28 25 23 25 23 21 20 20 20 21 22 24 26 27 25 27 26 26 28 28 29 29 27 23 29 27 20 17 17 16 13 13 13 13 14 16 16 16 16 15
33 32 32 29 24 22 25 21 19 19 19 19 20 21 23 25 24 24 24 24 25 27 26 27 28 27 27 27 23 21 17 17 14 13 12 12 11 14 14 14 15 17 20
33 33 32 29 23 21 23 19 16 17 17 18 19 21 23 22 22 22 24 24 25 25 23 23 26 26 23 21 20 19 18 16 14 14 14 14 14 14 16 15 13 12 12
35 35 33 30 25 20 20 17 15 15 17 20 20 17 18 20 20 21 24 25 25 23 22 24 25 24 20 18 18 18 18 18 17 15 14 14 14 15 16 15 13 11 10
36 35 32 27 22 19 16 15 13 18 20 18 17 19 20 20 20 22 25 26 25 24 21 22 23 18 19 17 17 17 19 19 18 16 11 12 16 16 15 15 14 14 13
36 33 26 21 19 17 14 16 20 21 17 20 22 20 20 21 23 25 26 26 25 23 25 24 22 20 19 19 17 17 19 19 17 15 13 11 16 14 14 14 14 15 15
31 26 20 19 16 18 21 20 18 16 21 23 22 22 24 26 26 26 25 26 24 22 25 28 25 22 22 17 18 18 18 17 18 17 16 16 13 14 14 12 13 14 15
20 18 19 21 22 22 19 14 15 23 24 24 24 24 26 26 26 26 26 25 23 22 23 22 23 23 23 22 18 17 18 19 18 18 17 16 14 13 11 10 13 12 12
18 19 20 18 20 21 20 21 23 25 25 25 25 26 25 27 27 26 25 24 23 23 22 22 21 20 20 21 22 21 21 21 20 18 17 16 16 15 13 12 11 12 10
27 27 28 27 21 20 22 24 25 26 25 26 26 25 25 25 26 28 26 24 25 23 23 22 21 23 23 22 22 21 20 20 19 18 19 16 16 14 13 12 11 11 10
28 26 22 22 23 24 24 26 26 26 28 27 26 25 27 26 26 26 27 28 24 22 22 21 23 28 26 23 21 19 20 20 19 17 17 17 17 16 14 13 12 12 10

GFSMW_sfc_30mbdewp_009.txt.gz
Dewpoint
46 48 46 46 49 53 54 55 53 53 53 49 47 45 44 43 41 40 41 41 40 39 40 39 39 39 38 39 39 39 38 35 31 28 30 28 28 26 22 25 30 30 28
46 48 49 49 51 53 54 54 53 53 48 46 44 45 44 41 39 41 41 39 40 39 38 39 39 38 38 37 37 37 36 31 28 26 27 23 21 19 24 23 23 26 24
46 50 51 52 53 54 53 53 51 48 45 45 44 42 41 41 39 38 37 39 40 40 39 37 37 37 36 32 33 33 34 31 28 26 24 22 20 21 21 20 21 25 23
47 50 52 52 53 53 53 49 47 45 44 40 41 41 39 37 39 37 38 37 36 34 31 29 30 32 34 33 31 31 34 32 27 26 25 25 24 21 19 17 17 18 18
48 50 51 53 51 51 50 46 44 40 40 41 41 39 38 36 35 32 27 22 20 18 17 17 21 27 31 33 33 34 34 31 30 28 26 24 21 18 17 15 15 15 15
48 48 48 49 48 47 45 43 39 39 40 41 41 40 34 28 24 22 19 17 17 17 19 23 26 27 28 34 34 35 33 35 32 27 23 21 18 16 16 16 17 16 15
43 41 43 40 40 42 42 40 38 39 40 39 34 29 26 24 21 21 20 21 19 20 22 28 30 30 31 34 35 36 37 36 31 25 22 20 20 20 19 17 16 15 14
38 37 37 36 38 41 41 38 38 38 36 29 26 26 22 23 22 24 24 21 21 22 25 28 32 32 34 35 35 37 37 35 29 25 24 23 21 20 19 18 16 16 15
35 33 35 36 38 40 40 39 38 35 28 28 29 27 26 28 27 26 24 21 22 22 23 28 31 35 34 36 37 33 30 26 25 23 22 21 20 18 16 16 15 16 18
34 35 35 38 39 40 39 40 35 28 29 30 28 27 27 27 27 26 24 23 24 25 25 26 28 30 32 34 30 27 28 26 23 20 21 21 21 20 17 16 17 16 16
35 36 38 39 40 39 40 36 30 29 30 27 26 27 27 27 26 25 24 24 25 24 24 25 27 27 27 26 27 27 28 22 22 23 23 21 20 19 19 18 17 15 15
35 37 39 39 38 39 37 32 30 29 28 26 26 27 28 27 25 25 24 25 25 25 26 27 27 26 25 24 23 23 21 21 22 22 21 20 20 19 16 17 15 16 16
35 37 39 39 38 38 34 31 29 28 26 23 24 24 25 26 25 25 25 25 24 25 27 27 26 25 28 26 25 21 22 24 25 22 23 22 21 16 16 16 17 16 14
37 38 39 39 39 37 32 29 29 27 24 20 20 21 25 25 25 26 26 24 24 26 27 26 25 25 24 20 20 20 22 23 24 25 20 18 16 15 18 16 15 15 16
37 38 38 38 38 35 30 29 30 27 22 20 19 21 24 26 25 26 26 24 25 26 26 25 27 28 26 22 24 25 24 22 20 19 16 14 15 16 16 15 15 15 14
35 37 37 36 34 32 29 29 29 25 23 22 22 23 24 23 23 25 25 24 23 23 23 23 24 29 27 27 25 19 19 19 17 16 15 14 15 14 15 17 18 16 15
34 35 35 34 32 31 29 29 26 23 22 21 21 22 23 22 23 24 21 21 22 23 23 22 22 27 27 27 23 21 17 20 19 16 14 14 12 14 15 16 15 15 16
33 34 34 34 32 31 28 28 23 22 21 20 20 21 21 20 20 20 19 20 22 22 22 21 22 23 26 23 20 19 19 20 19 16 16 14 14 16 17 15 14 13 11
33 34 34 35 34 30 26 26 22 20 18 21 20 21 16 16 17 17 18 20 22 22 22 21 20 20 24 21 19 17 20 21 19 18 16 14 11 18 16 15 14 12 11
33 34 35 35 34 29 25 24 20 23 23 19 21 17 17 17 16 17 18 20 22 22 22 21 21 22 24 20 18 17 20 20 20 18 16 14 15 17 16 15 15 14 13
34 35 36 35 33 28 23 21 27 20 20 20 20 19 17 18 19 20 22 23 23 23 25 25 24 24 22 23 19 18 19 21 19 17 16 16 18 16 15 16 14 15 14
35 36 35 31 26 22 23 25 25 23 20 21 20 19 20 22 23 24 24 24 24 24 25 29 27 25 23 21 20 18 19 18 18 19 18 20 18 16 15 15 12 14 15
33 30 24 22 25 26 28 28 23 25 23 23 22 23 23 25 24 25 25 25 24 24 25 26 27 24 26 30 21 21 19 19 21 20 20 19 18 16 16 14 13 15 15
23 21 23 23 29 34 34 31 23 25 26 26 25 26 26 25 26 26 26 23 23 25 25 25 23 23 19 19 25 23 22 22 22 23 22 20 20 19 19 19 16 15 14
23 27 34 34 31 28 23 27 28 27 26 28 28 26 27 27 25 25 26 28 26 24 27 25 25 25 27 23 24 24 24 23 22 21 20 19 19 17 17 16 15 15 15
31 32 32 31 27 26 25 27 28 29 29 29 28 28 27 27 27 26 26 28 28 28 23 22 25 29 26 25 24 23 21 20 21 19 18 18 22 21 18 16 15 15 14

GFSMW_sfc_30mbdewp_012.txt.gz
Dewpoint
43 44 43 46 52 54 54 55 56 56 57 53 49 47 45 45 45 43 43 43 42 41 42 43 43 42 42 43 41 41 40 39 37 32 30 30 30 28 30 27 27 27 28
43 46 46 46 51 54 54 55 54 55 54 49 50 49 46 44 43 44 43 43 43 41 40 42 41 42 41 40 41 37 37 37 36 31 30 27 26 27 27 28 27 25 27
45 47 46 49 52 55 55 55 54 54 49 49 47 45 44 44 43 43 43 42 41 38 36 36 37 38 38 38 38 36 37 35 34 33 29 28 26 26 27 23 24 25 25
45 47 50 50 55 55 55 54 52 48 46 44 44 43 42 41 40 40 36 33 29 25 23 25 30 31 34 36 39 35 38 37 33 32 32 30 28 24 21 21 20 21 20
45 49 51 54 54 55 54 51 47 43 42 43 43 42 40 39 36 30 27 26 24 26 25 27 32 33 33 33 37 40 39 38 36 33 30 27 25 23 20 19 19 20 21
46 49 53 53 53 54 51 47 42 41 43 44 44 38 33 29 28 24 23 25 26 25 27 31 33 35 36 37 40 39 38 38 36 34 30 26 22 22 22 21 21 20 20
47 48 52 52 51 50 47 44 41 41 43 42 36 33 29 26 27 25 25 24 24 25 29 29 33 35 37 38 37 38 38 38 37 35 29 27 27 24 23 22 21 20 19
47 47 47 48 47 46 45 41 40 41 41 34 31 30 28 27 28 28 26 25 25 26 26 31 32 34 37 35 37 38 39 38 37 32 31 28 27 25 23 21 19 18 19
44 43 44 42 43 43 44 41 40 40 35 31 32 31 30 30 29 28 26 25 26 25 27 29 30 33 34 36 38 38 36 33 31 29 29 25 26 25 25 22 20 21 19
40 39 39 39 41 43 43 42 40 38 32 33 34 31 31 32 30 28 26 25 27 27 28 28 29 30 33 36 35 33 31 30 31 29 28 29 28 25 24 23 22 21 19
39 36 35 37 40 42 42 42 40 33 32 34 32 32 30 31 30 28 26 26 27 27 27 27 28 28 28 28 29 29 27 30 27 28 28 29 30 25 24 23 22 20 19
38 36 36 38 40 42 41 42 39 32 33 32 31 31 32 30 29 27 26 26 26 27 27 28 28 29 28 28 29 28 26 27 30 31 27 27 25 24 23 21 21 21 19
37 36 37 39 40 41 41 41 36 32 32 31 29 30 31 31 28 27 27 27 27 26 27 28 29 28 27 29 29 27 25 25 28 27 27 26 22 19 20 19 17 17 17
36 36 37 40 40 40 41 39 35 33 31 28 27 27 29 28 28 27 28 28 26 26 28 29 29 27 26 25 25 24 27 27 26 26 24 21 19 17 16 15 16 15 17
34 35 37 40 40 40 40 37 34 33 31 27 24 25 27 28 28 28 28 28 27 27 27 27 28 28 30 28 26 26 23 23 21 21 20 18 16 15 17 15 16 18 17
26 34 37 40 40 40 40 36 33 33 30 27 25 24 25 26 27 27 29 29 28 27 25 25 26 26 30 26 24 20 20 21 21 21 19 18 17 20 18 21 20 19 18
30 32 36 39 39 39 39 35 32 32 28 26 24 25 26 27 28 28 26 25 24 26 25 26 25 24 30 27 23 18 18 20 23 21 19 17 15 18 18 18 16 15 17
32 33 35 37 38 37 36 33 32 29 27 24 24 26 27 28 26 23 23 23 24 25 26 25 24 25 28 26 22 17 18 22 23 20 19 18 17 19 18 17 16 16 15
31 32 33 36 36 35 34 32 31 26 25 23 26 29 29 20 19 20 21 21 23 24 25 25 23 24 26 24 20 17 20 24 22 21 20 18 14 20 18 17 17 16 14
30 31 33 35 35 36 34 30 27 24 25 29 27 23 28 22 21 23 22 24 25 25 25 25 24 23 26 24 21 18 21 22 22 22 19 18 15 17 17 17 17 17 17
34 35 35 36 35 34 29 27 25 27 26 27 32 34 28 24 23 24 26 27 26 27 28 26 26 26 26 23 22 20 19 22 22 20 19 21 19 20 19 16 18 17 16
34 36 28 25 25 28 25 26 29 31 30 34 35 28 26 26 25 27 27 28 27 27 28 28 28 27 26 25 23 22 20 20 18 20 22 23 21 20 19 18 18 16 17
28 24 26 26 29 30 31 29 33 35 35 33 28 29 28 27 27 27 27 28 28 27 27 28 29 28 29 28 24 23 22 21 19 22 23 22 21 22 20 20 17 17 17
23 24 27 34 35 36 35 33 34 30 30 30 31 30 30 29 27 27 26 26 29 28 27 27 27 28 27 27 26 24 23 22 22 22 24 23 21 20 20 20 21 20 19
32 33 32 31 30 30 31 31 31 30 30 30 30 30 29 29 29 28 26 27 28 29 27 28 29 28 27 25 26 27 27 27 26 24 21 21 21 21 20 19 19 18 18
33 33 33 32 31 30 29 29 29 29 30 31 30 31 30 30 29 29 28 28 28 28 29 28 24 29 30 26 24 24 24 22 21 20 20 20 20 22 21 19 19 17 17